Longville, MN

2:59 AM CDT on April 27, 2017 (GMT -0500)
Longville Municipal

Weather History for KXVG - March, 2013

Change the Weather History Date:

Friday, March 22, 2013

  Actual Average (KPWC) Record (KPWC)
Temperature  
Mean Temperature 13 °F -  
Max Temperature 35 °F 39 °F 60 °F (2012)
Min Temperature -9 °F 18 °F -7 °F (2013)
Degree Days  
Heating Degree Days 52    
Moisture  
Dew Point 4 °F    
Average Humidity 67    
Maximum Humidity 92    
Minimum Humidity 38    
Precipitation  
Precipitation 0.00 in - - ()
Sea Level Pressure  
Sea Level Pressure 30.04 in    
Wind  
Wind Speed 1 mph (NNW)    
Max Wind Speed 7 mph    
Max Gust Speed -    
Visibility 10 miles    
Events      
Averages and records for this station are not official NWS values.
T = Trace of Precipitation, MM = Missing Value Source: NWS Daily Summary

Daily Weather History Graph

Daily Weather History Graph

Search for Another Location

Airport or City:

Trip Planner

Search our weather history database for the weather conditions in past years. The results will help you decide how hot, cold, wet, or windy it might be!

Date:

Astronomy

Mar. 22, 2013 Rise Set
Actual Time 7:15 AM CDT 7:32 PM CDT
Civil Twilight 6:44 AM CDT 8:03 PM CDT
Nautical Twilight 6:09 AM CDT 8:39 PM CDT
Astronomical Twilight 5:32 AM CDT 9:16 PM CDT
Moon 2:45 PM CDT (3/22) 4:32 AM CDT (3/22)
Length of Visible Light 13h 18m
Length of Day
12h 17m
Waxing Gibbous, 77% of the Moon is Illuminated
Mar 22
Waxing Gibbous
Mar 27
Full
Apr 2
Last Quarter
Apr 10
New
Apr 18
First Quarter

Hourly Weather History & Observations

Time (CDT) Temp. Windchill Dew Point Humidity Pressure Visibility Wind Dir Wind Speed Gust Speed Precip Events Conditions
12:16 AM 1.4 °F - -0.4 °F 92% 30.05 in 10.0 mi Calm Calm - N/A   Clear
12:36 AM 3.2 °F - -0.4 °F 85% - 10.0 mi Calm Calm - N/A   Clear
12:56 AM 1.4 °F - -2.2 °F 85% 30.06 in 10.0 mi Calm Calm - N/A   Clear
1:16 AM 1.4 °F - -2.2 °F 85% 30.06 in 10.0 mi Calm Calm - N/A   Clear
1:36 AM 1.4 °F - -2.2 °F 85% 30.06 in 10.0 mi Calm Calm - N/A   Clear
1:56 AM -0.4 °F - -2.2 °F 92% 30.06 in 10.0 mi Calm Calm - N/A   Clear
2:16 AM -2.2 °F - -5.8 °F 85% 30.06 in 10.0 mi Calm Calm - N/A   Clear
2:36 AM -2.2 °F - -5.8 °F 85% 30.06 in 10.0 mi Calm Calm - N/A   Clear
2:56 AM -2.2 °F - -5.8 °F 85% 30.06 in 10.0 mi Calm Calm - N/A   Clear
3:16 AM -4.0 °F - -7.6 °F 85% 30.07 in 10.0 mi Calm Calm - N/A   Clear
3:36 AM -4.0 °F - -7.6 °F 85% 30.06 in 10.0 mi Calm Calm - N/A   Clear
3:56 AM -5.8 °F - -9.4 °F 84% 30.06 in 10.0 mi Calm Calm - N/A   Clear
4:16 AM -7.6 °F - -11.2 °F 84% 30.05 in 10.0 mi Calm Calm - N/A   Clear
4:36 AM -5.8 °F - -9.4 °F 84% 30.05 in 10.0 mi Calm Calm - N/A   Clear
4:56 AM -5.8 °F - -9.4 °F 84% 30.04 in 10.0 mi Calm Calm - N/A   Clear
5:16 AM -7.6 °F - -11.2 °F 84% 30.04 in 10.0 mi Calm Calm - N/A   Clear
5:36 AM -9.4 °F - -13.0 °F 84% 30.05 in 10.0 mi Calm Calm - N/A   Clear
5:56 AM -7.6 °F - -11.2 °F 84% 30.05 in 10.0 mi Calm Calm - N/A   Clear
6:16 AM -9.4 °F - -14.8 °F 77% 30.05 in 10.0 mi Calm Calm - N/A   Clear
6:36 AM -9.4 °F - -13.0 °F 84% 30.05 in 10.0 mi Calm Calm - N/A   Clear
7:16 AM -9.4 °F - -14.8 °F 77% 30.06 in 10.0 mi Calm Calm - N/A   Clear
7:36 AM -9.4 °F - -13.0 °F 84% 30.06 in 10.0 mi Calm Calm - N/A   Clear
7:56 AM -9.4 °F - -14.8 °F 77% 30.06 in 10.0 mi Calm Calm - N/A   Clear
8:16 AM -7.6 °F - -11.2 °F 84% 30.06 in 10.0 mi Calm Calm - N/A   Clear
8:36 AM -4.0 °F - -7.6 °F 85% 30.06 in 10.0 mi Calm Calm - N/A   Clear
8:56 AM 1.4 °F - -2.2 °F 85% 30.06 in 10.0 mi Calm Calm - N/A   Clear
9:16 AM 8.6 °F - 3.2 °F 79% 30.05 in 10.0 mi Calm Calm - N/A   Clear
9:36 AM 12.2 °F - 5.0 °F 73% 30.05 in 10.0 mi Calm Calm - N/A   Clear
9:56 AM 15.8 °F - 6.8 °F 68% 30.05 in 10.0 mi Calm Calm - N/A   Clear
10:16 AM 17.6 °F - 6.8 °F 63% 30.05 in 10.0 mi Calm Calm - N/A   Clear
10:36 AM 21.2 °F 14.9 °F 8.6 °F 58% 30.04 in 10.0 mi NNE 4.6 mph - N/A   Clear
10:56 AM 23.0 °F 17.0 °F 8.6 °F 54% 30.04 in 10.0 mi NNE 4.6 mph - N/A   Clear
11:16 AM 24.8 °F 19.1 °F 8.6 °F 50% 30.04 in 10.0 mi North 4.6 mph - N/A   Clear
11:36 AM 26.6 °F 21.2 °F 8.6 °F 47% 30.03 in 10.0 mi NE 4.6 mph - N/A   Clear
11:56 AM 26.6 °F 21.2 °F 8.6 °F 47% 30.03 in 10.0 mi North 4.6 mph - N/A   Clear
12:16 PM 28.4 °F 24.6 °F 8.6 °F 43% 30.03 in 10.0 mi North 3.5 mph - N/A   Clear
12:36 PM 28.4 °F 23.3 °F 8.6 °F 43% 30.03 in 10.0 mi North 4.6 mph - N/A   Clear
12:56 PM 30.2 °F 25.4 °F 10.4 °F 44% 30.03 in 10.0 mi North 4.6 mph - N/A   Clear
1:16 PM 30.2 °F 26.7 °F 10.4 °F 44% 30.02 in 10.0 mi NNE 3.5 mph - N/A   Clear
1:36 PM 30.2 °F 26.7 °F 10.4 °F 44% 30.02 in 10.0 mi WNW 3.5 mph - N/A   Clear
1:56 PM 32.0 °F 28.7 °F 10.4 °F 41% 30.01 in 10.0 mi NNW 3.5 mph - N/A   Clear
2:16 PM 32.0 °F - 10.4 °F 41% 30.01 in 10.0 mi Calm Calm - N/A   Clear
2:36 PM 32.0 °F - 10.4 °F 41% 30.01 in 10.0 mi Calm Calm - N/A   Clear
2:56 PM 33.8 °F 30.8 °F 10.4 °F 38% 30.00 in 10.0 mi West 3.5 mph - N/A   Clear
3:16 PM 33.8 °F - 12.2 °F 41% 30.00 in 10.0 mi Calm Calm - N/A   Clear
3:36 PM 33.8 °F 29.6 °F 12.2 °F 41% 30.00 in 10.0 mi NW 4.6 mph - N/A   Clear
3:56 PM 33.8 °F 29.6 °F 12.2 °F 41% 30.00 in 10.0 mi NW 4.6 mph - N/A   Clear
4:16 PM 35.6 °F 32.8 °F 12.2 °F 38% 30.00 in 10.0 mi North 3.5 mph - N/A   Clear
4:36 PM 35.6 °F 32.8 °F 12.2 °F 38% 30.00 in 10.0 mi North 3.5 mph - N/A   Clear
4:56 PM 35.6 °F - 12.2 °F 38% 30.00 in 10.0 mi Calm Calm - N/A   Clear
5:16 PM 35.6 °F 30.7 °F 12.2 °F 38% 30.00 in 10.0 mi West 5.8 mph - N/A   Clear
5:36 PM 33.8 °F 28.6 °F 12.2 °F 41% 30.01 in 10.0 mi WNW 5.8 mph - N/A   Clear
5:56 PM 33.8 °F 27.7 °F 14.0 °F 44% 30.02 in 10.0 mi West 6.9 mph - N/A   Clear
6:16 PM 32.0 °F 27.5 °F 12.2 °F 44% 30.02 in 10.0 mi WNW 4.6 mph - N/A   Clear
6:36 PM 32.0 °F 26.4 °F 12.2 °F 44% 30.02 in 10.0 mi WNW 5.8 mph - N/A   Clear
6:56 PM 30.2 °F 26.7 °F 14.0 °F 51% 30.02 in 10.0 mi NW 3.5 mph - N/A   Clear
7:16 PM 28.4 °F - 14.0 °F 55% 30.02 in 10.0 mi Calm Calm - N/A   Clear
7:36 PM 26.6 °F - 15.8 °F 64% 30.03 in 10.0 mi Calm Calm - N/A   Clear
7:56 PM 24.8 °F - 14.0 °F 64% 30.03 in 10.0 mi Calm Calm - N/A   Clear
8:16 PM 23.0 °F - 12.2 °F 63% 30.03 in 10.0 mi Calm Calm - N/A   Clear
8:36 PM 21.2 °F - 12.2 °F 68% 30.03 in 10.0 mi Calm Calm - N/A   Clear
8:56 PM 21.2 °F - 12.2 °F 68% 30.04 in 10.0 mi Calm Calm - N/A   Clear
9:16 PM 17.6 °F - 12.2 °F 79% 30.04 in 10.0 mi Calm Calm - N/A   Clear
9:36 PM 17.6 °F - 12.2 °F 79% 30.04 in 10.0 mi Calm Calm - N/A   Clear
9:56 PM 15.8 °F - 12.2 °F 86% 30.05 in 10.0 mi Calm Calm - N/A   Clear
10:16 PM 15.8 °F - 12.2 °F 86% 30.05 in 10.0 mi Calm Calm - N/A   Clear
10:36 PM 14.0 °F - 10.4 °F 86% 30.06 in 10.0 mi Calm Calm - N/A   Clear
10:56 PM 14.0 °F - 10.4 °F 86% 30.06 in 10.0 mi Calm Calm - N/A   Clear
11:16 PM 12.2 °F - 8.6 °F 85% - 10.0 mi Calm Calm - N/A   Clear
11:36 PM 12.2 °F - 10.4 °F 92% 30.07 in 10.0 mi Calm Calm - N/A   Clear
11:56 PM 14.0 °F - 10.4 °F 86% 30.07 in 10.0 mi Calm Calm - N/A   Clear